User: anonymous
Location: Unspecified
(0.0000°N, 0.0000°E)
Time: 07:58:26
(UTC+02:00)
Language:

Cosmos 1626 Rocket - Orbit

View from above orbital plane
View from above orbital plane
View from above satellite
View from above satellite

Ground track
Ground track

The orbit data is extracted from the following two-line orbital elements,

1 15495U 85009B   14273.76277826  .00000382  00000-0  43597-4 0  9050
2 15495 082.5272 034.9477 0019850 001.2693 358.8568 14.83292041603118
Epoch (UTC): 30 September 2014 18:18:24
Eccentricity: 0.0019850
inclination: 82.5272°
perigee height: 605 km
apogee height: 633 km
right ascension of ascending node: 34.9477°
argument of perigee: 1.2693°
revolutions per day: 14.83292041
mean anomaly at epoch: 358.8568°
orbit number at epoch: 60311

The dashed part of the orbit path shows where the satellite is in the earth's shadow,  

DLR